Regional Weather Roundup
Issued by NWS Albany, NY

Home | Current Version | Previous Version | Text Only | Print | Product List | Glossary On
Versions: 1 2 3 4 5 6 7 8 9 10 11 12 13 14 15 16 17 18 19 20 21 22 23 24 25 26 27 28 29 30 31 32 33 34 35 36 37 38 39 40 41 42 43 44 45 46 47 48 49 50
000
ASUS41 KALY 211510
RWRALY

NEW YORK STATE HOURLY WEATHER ROUNDUP
NATIONAL WEATHER SERVICE ALBANY NY
1100 AM EDT TUE OCT 21 2014

NOTE: "FAIR" INDICATES FEW OR NO CLOUDS BELOW 12,000 FEET WITH NO
SIGNIFICANT WEATHER AND/OR NO OBSTRUCTIONS TO VISIBILITY.

NYZ032-033-038>043-046>054-057>066-NYZ062>081-211600-
EAST


CITY           SKY/WX    TMP DP  RH WIND       PRES   REMARKS
ALBANY         LGT RAIN  50  47  89 CALM      29.94R FOG
GLENS FALLS    CLOUDY    49  45  86 N3        29.94R
POUGHKEEPSIE   LGT RAIN  51  49  92 N3        29.93S FOG
NEWBURGH       CLOUDY    52  50  93 CALM      29.92F
MONTGOMERY     CLOUDY    50  47  89 NE5       29.91F
WHITE PLAINS   PTSUNNY   61  49  64 E7        29.89F
ISLIP          PTSUNNY   64  51  62 E12       29.89F
NEW YORK CITY  PTSUNNY   65  48  54 NE7       29.88F
CENTRAL PARK   MOSUNNY   64  45  49 CALM      29.91F
$$

NYZ005>009-017-018-044>046-055-056-211600-
CENTRAL


CITY           SKY/WX    TMP DP  RH WIND       PRES   REMARKS
FULTON         CLOUDY    52  49  89 VRB5      29.86R
SYRACUSE       CLOUDY    49  47  91 E7        29.86S
ROME           CLOUDY    50  47  89 SE6       29.89S
ELMIRA         LGT RAIN  51  47  86 CALM      29.84S FOG
BINGHAMTON     CLOUDY    51  47  86 S5        29.85S
MONTICELLO     CLOUDY    46  46 100 E5        29.91S
$$

NYZ026>034-041>043-211600-
NORTH


CITY           SKY/WX    TMP DP  RH WIND       PRES   REMARKS
WATERTOWN      LGT RAIN  52  45  77 NE10      29.88R
FORT DRUM      NOT AVBL
MASSENA        CLOUDY    45  42  89 NE14      29.98R
SARANAC LAKE   CLOUDY    43  42  97 E10       29.91S
PLATTSBURGH    CLOUDY    48  46  93 N7        29.98S
$$

NYZ001>004-010>016-019>021-211600-
WEST


CITY           SKY/WX    TMP DP  RH WIND       PRES   REMARKS
NIAGARA FALLS  PTSUNNY   52  48  86 NW6       29.85R
BUFFALO        CLOUDY    53  48  83 N5        29.85R
DUNKIRK        CLOUDY    53  48  83 W9        29.86R
JAMESTOWN      CLOUDY    48  45  87 NW7       29.86S
WELLSVILLE     CLOUDY    50  47  89 W7        29.86R
ROCHESTER      LGT RAIN  52  50  93 W5        29.84S FOG
PENN YAN       CLOUDY    53  49  86 SW7       29.84S
$$

             KEY
       WCI = WIND CHILL INDEX
       VSB = VISIBILITY
       HX  = HEAT INDEX
$$


USA.gov is the U.S. government's official web portal to all federal, state and local government web resources and services.